Temperature
15 16 16 16 13 11 13 13 13 14 14 15 15 15 14 14 15 15 15 15 16 16 15 15 15 15 15 15 15 15 15 15 15 15 15 15 15 15 15 15 15 15 15 15 15 15 15 15 15
15 15 16 15 12 12 13 13 13 14 15 15 15 15 14 14 15 15 15 15 15 15 15 15 15 15 15 15 15 15 15 15 15 15 15 15 15 15 15 15 15 15 15 14 14 14 14 14 14
15 15 15 11 11 12 14 13 13 14 15 15 14 14 14 14 14 14 15 15 15 15 15 15 15 15 15 15 15 15 15 15 15 15 15 15 15 15 15 15 14 14 14 14 14 14 14 14 14
15 15 14 10 12 12 13 13 13 13 14 14 14 13 13 14 14 14 14 14 14 14 14 14 14 14 15 15 15 14 14 14 14 15 15 15 15 15 15 14 14 14 14 14 14 14 14 14 14
15 14 10 10 12 12 11 12 13 13 13 13 13 12 13 14 14 14 14 14 14 14 14 14 14 14 14 14 14 14 14 14 14 14 14 15 15 15 15 14 14 14 14 14 14 14 14 14 14
14 11 10 11 11 12 12 12 13 12 12 13 13 12 13 13 14 14 14 14 14 14 14 14 13 14 14 14 14 14 14 14 14 14 14 14 14 14 14 14 14 14 14 14 14 14 14 13 14
12 9 10 10 11 12 12 12 12 11 12 12 13 11 12 13 13 13 13 13 13 13 13 13 13 13 14 14 14 14 14 14 14 14 14 14 14 14 14 14 14 14 14 14 14 13 13 13 13
12 9 10 9 10 11 12 12 12 12 12 12 12 11 12 12 12 12 13 13 13 13 13 13 13 13 13 13 13 13 13 13 13 13 14 14 14 14 13 14 14 13 13 13 13 13 13 13 13
12 8 9 10 10 11 11 11 12 12 12 12 12 12 12 12 12 12 12 12 12 12 12 12 13 13 13 13 13 13 13 13 13 13 13 13 13 13 13 13 13 13 13 13 13 13 13 13 12
11 8 9 10 10 10 10 10 11 11 10 10 11 12 12 12 11 12 12 12 12 12 12 12 12 12 12 12 13 13 13 13 13 13 13 13 13 13 13 13 13 13 13 13 13 13 13 13 12
9 8 9 10 10 10 10 10 10 10 9 9 10 11 11 11 11 11 11 12 12 12 12 12 12 12 12 12 12 12 12 12 12 12 12 12 12 13 13 12 12 12 12 12 12 12 12 12 12
8 8 9 9 10 10 9 9 9 9 9 10 10 11 11 10 11 11 11 11 11 11 11 11 11 12 12 12 12 12 12 12 12 12 12 12 12 12 12 12 12 12 12 12 12 12 12 12 12
8 8 9 9 9 9 9 8 8 8 9 10 10 10 10 10 10 10 10 10 10 11 11 11 11 11 11 11 12 12 12 12 12 12 12 12 12 12 12 12 12 12 11 11 11 11 11 11 11
8 8 8 8 8 8 7 7 8 8 9 9 9 10 10 10 10 10 10 10 10 10 10 10 10 11 11 11 11 11 11 11 11 11 11 11 11 11 11 11 11 11 11 11 11 11 11 11 11
8 7 7 7 8 8 8 7 6 8 8 8 9 9 9 9 9 9 10 9 9 9 10 10 10 10 10 10 11 11 11 11 11 11 11 11 11 11 11 11 11 11 11 11 11 10 11 11 10
7 6 6 7 7 7 7 7 7 8 8 7 8 8 9 9 9 9 9 9 9 9 9 9 10 10 10 10 10 10 10 10 10 10 10 10 10 10 11 10 10 11 10 10 10 10 10 10 10
6 6 6 6 6 6 6 6 6 7 7 7 7 7 8 8 9 9 9 9 9 9 9 9 9 9 9 10 10 10 10 10 10 10 10 10 10 10 10 10 10 10 10 10 10 10 10 10 10
6 5 5 5 6 5 5 4 5 6 6 6 6 7 7 7 8 8 8 8 8 8 9 9 9 9 9 9 9 9 9 9 9 9 10 10 10 10 10 10 10 10 9 9 9 9 9 9 9
5 5 5 5 5 5 4 4 5 5 5 5 5 6 6 7 7 8 8 8 8 8 8 8 8 9 9 9 9 9 9 9 9 9 9 9 9 9 9 9 9 9 9 9 9 9 9 9 9
5 5 5 5 5 5 4 4 4 4 4 5 5 5 6 6 7 7 7 8 7 7 8 8 8 8 9 9 9 8 8 9 9 9 9 9 9 9 9 9 9 9 9 9 8 8 8 8 8
5 4 4 5 4 4 4 4 4 4 4 5 5 6 6 6 6 7 7 7 7 7 7 7 7 8 8 8 8 8 8 8 8 8 8 8 8 8 8 8 8 8 8 8 8 8 8 8 8
5 5 4 4 4 3 4 4 4 4 3 3 4 4 5 6 6 6 6 7 7 7 7 7 7 7 8 8 7 7 8 8 8 8 8 8 8 8 8 8 8 8 8 8 8 8 8 8 7
4 4 4 4 3 2 2 3 3 3 3 3 3 4 5 5 5 6 6 6 6 6 6 7 7 7 7 7 7 7 7 7 7 7 7 7 7 7 8 8 8 8 8 8 8 7 7 7 7
3 3 2 1 1 2 2 2 3 2 3 3 3 3 4 5 5 5 6 6 6 6 6 6 6 7 7 7 7 7 7 7 7 7 7 7 7 7 7 7 8 7 7 7 7 7 7 7 7
3 3 2 2 1 2 2 2 2 3 2 2 2 3 4 4 4 4 5 5 5 6 6 6 6 6 6 6 6 6 6 6 6 7 7 7 7 7 7 7 7 7 7 7 7 7 7 7 7
3 3 3 3 2 2 1 1 2 3 2 3 3 3 3 4 4 4 4 5 5 5 5 5 6 6 6 6 6 6 6 6 6 6 6 6 6 6 6 6 6 6 6 6 6 6 6 6 6
2 2 2 1 -0 0 1 0 1 2 2 2 2 2 3 3 3 4 4 4 4 4 5 5 5 5 5 6 6 6 6 6 6 6 6 6 6 6 6 6 5 5 5 5 5 5 5 5 5
2 1 0 1 1 2 2 1 2 2 2 1 1 1 2 3 3 3 3 4 4 4 4 4 4 5 5 5 5 5 5 5 5 5 5 5 5 5 5 5 5 5 5 5 5 5 5 5 5
1 1 0 -1 0 1 1 2 2 1 1 1 0 1 2 2 2 3 3 3 3 3 3 4 4 4 4 5 5 5 5 5 5 5 5 5 5 5 5 5 4 4 4 4 4 4 4 4 4
1 0 -0 1 -0 -1 -0 1 2 1 0 0 1 1 2 2 2 2 2 2 3 3 3 3 3 3 4 4 4 4 5 5 5 5 4 4 4 4 4 4 4 4 4 4 4 4 4 4 4
Wind_Speed
8 4 3 4 5 4 2 3 2 1 1 1 0 3 5 4 3 3 2 1 2 2 4 6 7 8 8 7 7 8 8 8 9 9 9 9 9 9 9 9 9 9 10 10 10 11 11 11 12
3 2 5 5 4 2 4 3 3 3 2 1 2 2 2 0 1 1 1 2 2 3 4 5 7 8 8 7 7 7 7 7 8 8 8 8 8 8 8 8 8 9 10 10 10 10 11 11 11
2 4 4 5 4 6 5 3 4 2 0 1 2 2 1 1 1 1 2 1 3 3 3 4 7 8 8 8 7 7 6 7 7 7 7 7 7 7 7 8 8 9 10 10 10 10 10 10 11
4 5 5 4 4 5 4 2 1 0 2 2 2 1 1 2 1 2 1 2 3 3 3 3 5 8 8 8 7 6 6 6 6 7 7 7 7 7 7 7 8 8 9 9 9 9 10 10 10
4 4 3 1 5 4 3 2 0 0 1 1 2 1 1 3 3 2 2 2 3 2 3 2 5 7 7 7 6 6 6 6 5 6 6 7 7 6 6 7 7 8 8 8 8 9 10 9 9
4 4 3 4 6 4 2 1 1 0 0 1 2 1 1 3 4 2 2 2 3 2 2 2 4 6 6 6 6 5 5 6 5 5 6 6 6 6 6 6 6 7 7 7 8 8 9 9 10
4 4 4 4 3 3 1 0 1 1 1 1 2 2 2 3 3 2 2 3 3 3 3 3 3 4 5 5 5 5 5 5 5 4 5 5 6 6 6 6 5 6 6 6 7 8 8 8 9
4 4 3 3 4 3 1 1 0 1 2 1 3 3 3 3 1 3 4 4 3 4 4 3 3 3 4 4 4 4 5 5 5 5 5 5 6 6 6 5 5 5 6 6 7 8 7 8 8
3 3 4 5 4 3 2 2 2 1 2 1 1 1 2 1 2 4 3 3 3 3 2 3 3 3 3 3 3 4 4 4 5 5 5 5 5 5 4 4 5 5 5 6 7 7 7 7 7
4 4 6 3 3 1 2 1 2 2 2 2 3 3 2 3 3 3 1 1 1 1 1 1 2 3 3 3 3 3 3 3 4 4 5 5 4 4 4 4 4 4 5 5 6 6 7 7 7
3 4 3 2 1 0 1 2 2 2 1 3 4 3 1 2 2 2 2 2 2 2 1 1 1 2 2 2 3 3 3 3 4 4 5 5 5 4 4 4 3 4 5 5 4 5 5 6 6
2 2 1 2 1 1 1 1 1 1 4 4 4 3 2 3 3 3 3 2 2 1 2 1 1 1 1 2 2 3 3 3 3 3 4 5 3 3 3 3 3 3 4 4 4 4 5 5 5
1 2 1 1 1 1 1 2 2 3 5 3 2 2 2 3 2 2 1 2 2 2 2 2 0 0 1 1 1 2 2 2 2 3 3 4 3 2 2 2 3 3 3 3 3 3 4 4 5
1 0 2 2 1 1 1 3 1 5 3 3 2 1 2 3 3 1 1 2 2 3 3 2 1 1 1 1 1 1 1 2 2 2 3 3 3 2 2 2 2 3 3 3 3 4 3 3 4
1 2 3 3 1 1 0 4 4 5 1 1 3 3 3 3 3 3 3 3 3 3 3 2 2 1 1 1 1 1 1 2 2 2 3 3 3 3 3 2 2 2 2 3 4 4 4 3 3
2 2 2 3 1 1 2 7 5 4 2 3 4 4 4 4 4 3 3 3 3 3 3 2 1 1 2 1 1 1 1 2 2 2 3 2 2 3 3 3 2 2 3 3 3 3 3 3 2
3 1 3 4 1 0 3 7 6 3 3 5 5 5 4 5 5 4 3 3 3 3 3 2 2 2 2 2 1 1 1 1 1 1 2 2 2 3 3 2 2 3 3 2 3 2 3 2 2
3 3 3 4 3 0 4 8 9 4 4 6 6 5 5 5 6 4 3 3 3 3 2 2 2 2 1 1 1 1 0 0 1 1 1 2 2 3 3 2 3 4 3 2 2 3 3 2 2
3 3 4 5 3 2 6 10 11 7 4 5 6 5 6 6 5 3 3 3 2 2 1 2 2 2 1 1 2 2 2 2 1 1 1 2 2 3 3 2 3 3 3 3 3 3 3 2 2
2 2 3 4 2 2 5 10 9 6 5 5 5 6 6 5 4 3 3 2 2 3 2 2 2 3 3 2 2 2 2 2 2 1 1 2 2 2 3 4 3 4 4 4 4 3 2 1 2
3 4 4 3 4 3 5 8 5 4 3 4 4 4 4 4 5 5 4 4 3 3 3 3 3 3 3 2 1 1 1 0 1 2 2 1 2 2 2 3 3 3 4 4 4 4 3 2 1
4 4 3 2 1 4 2 6 7 5 5 5 5 4 5 5 5 5 4 4 4 5 4 3 3 3 3 3 3 3 3 3 3 2 2 2 2 3 3 3 3 4 3 4 5 3 2 4 2
3 0 1 1 2 3 2 3 8 4 5 7 6 6 5 5 4 5 5 5 4 3 3 2 3 2 2 2 4 5 4 3 2 1 2 2 2 2 3 3 3 3 3 3 4 4 3 3 3
2 3 4 4 3 3 5 5 7 4 5 6 5 5 5 5 4 4 4 3 3 3 2 2 2 3 2 2 2 5 5 4 3 2 3 2 2 2 3 3 3 3 3 3 3 4 4 3 3
3 4 3 3 2 6 3 4 8 6 4 4 5 6 5 5 4 5 5 4 4 3 3 2 2 3 3 3 3 4 5 6 5 4 4 3 2 2 3 3 3 3 2 3 3 3 3 3 3
3 4 5 4 5 5 2 6 7 5 4 4 4 4 4 5 4 5 5 4 4 4 3 2 3 3 3 3 4 4 4 4 4 4 4 4 3 3 3 4 3 3 3 3 3 2 2 2 3
4 3 3 4 1 3 5 6 8 3 5 5 5 5 5 5 5 5 6 5 4 4 4 3 3 3 3 3 3 3 3 4 4 3 3 3 2 2 3 4 4 4 4 4 3 2 2 2 2
3 5 4 3 2 4 5 5 4 5 5 6 6 6 6 6 6 6 6 6 5 4 4 3 3 3 3 3 3 3 3 3 4 4 3 3 2 3 4 4 4 4 3 4 3 3 3 2 2
3 3 3 3 3 3 4 6 4 5 4 4 6 6 5 5 5 5 6 6 5 5 4 4 3 3 3 3 3 2 2 2 3 3 3 3 2 2 3 3 3 3 3 3 3 3 3 3 2
3 5 5 4 4 4 3 7 3 3 3 3 5 6 6 5 5 5 5 5 5 6 5 5 4 3 3 3 2 2 1 1 2 2 3 3 3 2 3 3 3 3 3 3 3 3 3 4 4
Wind_Direction
341 7 62 57 60 58 220 238 223 257 242 276 81 137 151 158 170 197 322 62 77 111 146 148 144 138 132 126 116 115 116 115 113 110 109 109 111 114 114 110 111 113 110 106 102 97 93 92 92
347 31 56 63 100 169 252 232 219 222 197 128 37 80 92 219 351 82 3 340 66 106 129 144 147 143 137 132 125 117 120 122 119 117 114 113 113 113 112 113 114 116 113 107 103 100 96 93 93
34 51 84 87 135 188 214 214 219 253 209 103 55 42 105 270 331 221 295 354 60 71 101 141 147 145 139 136 131 126 121 126 127 126 121 119 115 114 113 110 113 117 115 110 107 104 100 97 96
69 51 61 93 203 221 218 236 208 52 26 42 99 48 355 4 291 271 342 75 79 59 68 126 141 144 139 137 134 128 126 122 128 129 127 126 121 117 112 111 110 113 117 118 115 111 106 104 100
61 82 82 154 235 246 243 271 229 49 347 20 115 121 317 348 2 41 60 79 93 62 63 105 140 141 140 138 136 138 134 129 123 133 133 130 128 121 116 116 112 112 114 122 121 115 111 110 108
64 77 123 214 238 258 268 272 214 246 347 58 105 122 265 347 16 25 51 59 65 78 76 104 141 142 140 143 142 141 144 140 134 131 136 132 131 125 119 120 119 116 117 117 120 118 113 112 110
109 114 167 197 235 267 272 348 151 202 244 234 160 138 289 331 344 21 48 52 48 54 60 62 107 130 140 144 151 150 144 139 134 130 127 132 133 131 126 118 121 125 125 126 122 119 116 115 112
119 114 147 199 211 248 320 3 53 178 228 286 135 153 247 278 346 55 49 47 41 39 43 47 66 96 112 127 141 148 148 141 131 120 108 113 125 125 123 116 114 119 130 130 129 116 118 116 113
89 100 201 210 197 237 340 19 357 358 100 33 35 232 284 94 85 70 45 21 12 15 23 30 45 66 88 110 125 130 135 133 125 117 107 95 102 113 115 112 115 111 119 129 127 122 112 114 110
95 174 219 214 195 220 335 8 339 17 20 1 347 349 33 95 109 111 114 226 273 295 316 14 38 58 68 79 85 93 103 108 107 103 102 98 95 103 107 113 120 117 112 118 122 115 102 97 97
125 187 225 257 233 207 349 351 349 95 263 241 257 265 131 112 121 165 209 226 239 249 266 318 33 65 79 74 77 77 89 94 98 102 100 99 90 91 88 89 92 95 92 81 91 86 86 87 95
138 239 240 282 343 12 346 331 334 240 258 280 252 198 169 168 193 211 232 253 276 272 269 279 28 54 83 91 100 90 86 90 90 105 110 101 85 76 79 84 85 78 76 74 74 77 84 83 90
176 255 290 316 15 19 15 311 264 286 305 341 21 105 167 199 227 248 275 296 281 261 272 275 317 107 84 90 102 103 106 114 120 117 117 115 102 104 93 87 87 79 78 83 85 83 90 88 80
207 7 333 333 329 310 271 293 290 277 314 354 358 258 230 230 236 269 306 294 292 280 267 271 275 230 131 121 124 122 116 122 125 127 130 135 131 120 114 106 92 86 91 98 102 96 98 96 88
80 27 343 318 293 282 30 307 253 260 249 287 279 269 268 265 256 246 253 267 271 280 280 261 247 242 191 187 173 134 126 124 133 140 146 146 145 138 133 129 116 95 101 99 95 90 87 88 85
55 51 309 302 304 298 141 269 270 254 215 255 266 267 271 277 267 264 265 267 272 276 277 275 264 252 235 226 188 154 149 131 133 146 152 151 145 142 131 135 133 107 104 100 117 113 98 84 89
37 253 254 294 284 200 189 257 278 274 233 258 266 263 265 279 288 280 270 260 262 256 253 271 261 243 247 240 190 155 136 137 128 119 143 149 142 134 133 140 131 114 100 101 114 110 109 106 87
225 233 250 258 287 239 245 263 280 281 254 263 270 270 269 269 270 270 267 269 264 257 253 255 264 245 246 245 182 165 184 156 117 143 159 156 148 139 129 135 132 123 127 117 112 112 97 112 104
173 190 244 259 277 271 257 270 277 277 272 276 279 277 276 273 278 277 270 273 269 277 285 265 258 241 203 222 209 201 220 215 195 191 172 153 151 142 138 136 147 148 154 154 144 125 111 96 92
155 213 255 286 317 268 277 277 275 260 246 246 257 266 270 284 302 305 295 281 270 274 278 270 255 237 215 221 220 212 203 205 203 193 165 146 143 149 156 155 163 163 154 147 147 130 128 110 109
228 204 229 263 329 341 316 300 279 277 275 285 277 271 281 274 277 282 286 284 276 269 270 267 259 246 228 216 208 152 121 125 188 195 195 187 163 162 159 167 162 160 161 164 167 162 149 161 176
240 222 207 242 319 300 0 299 289 295 312 307 294 293 289 293 293 294 289 290 279 264 263 264 259 250 236 203 188 180 196 209 217 205 201 201 185 172 168 170 165 160 163 172 180 178 171 163 177
213 133 161 192 185 299 281 242 285 320 302 295 292 289 287 291 290 291 285 275 280 277 266 261 263 257 247 220 202 197 209 213 207 189 191 188 201 190 174 170 173 168 170 177 179 178 175 177 180
143 59 52 59 85 272 232 204 281 265 258 292 299 303 300 303 304 304 305 308 310 318 305 282 274 269 253 236 227 206 206 200 190 200 196 192 198 206 190 168 172 171 170 177 178 180 183 187 175
92 91 27 352 329 250 223 216 254 256 253 274 293 303 312 318 319 319 321 316 316 310 307 301 278 272 256 235 232 222 213 202 201 205 200 192 195 217 199 176 175 173 164 163 158 166 183 185 181
192 153 165 210 238 276 271 235 255 272 292 295 301 308 329 333 329 323 316 310 311 303 295 300 285 270 258 242 236 226 215 205 208 206 198 197 202 207 194 177 175 167 160 161 156 163 183 184 189
147 173 158 141 168 270 263 276 296 294 330 343 346 348 337 332 329 325 325 323 319 314 305 293 284 285 266 255 251 233 218 205 200 197 195 196 191 194 183 171 165 162 158 162 160 164 177 181 197
144 145 117 141 188 261 282 268 258 291 313 332 337 331 323 329 330 330 331 329 325 321 315 313 295 281 281 261 249 249 234 214 192 177 185 199 190 183 179 174 169 163 159 163 162 163 172 172 198
131 138 140 147 178 191 266 269 232 244 271 289 300 308 311 315 318 323 327 329 331 334 331 322 317 309 308 284 261 251 248 225 184 177 182 187 169 169 173 173 170 164 168 169 168 175 174 178 188
176 176 158 175 228 207 219 265 278 244 273 280 295 308 315 314 314 318 323 332 341 338 334 328 318 306 298 294 274 252 244 203 168 173 179 170 162 166 164 155 158 161 162 167 173 183 183 183 193
Height
1500 1502 1503 1506 1510 1522 1523 1518 1514 1513 1512 1511 1511 1511 1512 1514 1517 1521 1516 1514 1515 1516 1517 1518 1520 1522 1523 1524 1525 1526 1527 1527 1528 1529 1529 1530 1531 1531 1532 1533 1533 1534 1535 1535 1535 1535 1536 1536 1536
1500 1502 1505 1506 1517 1527 1522 1515 1514 1511 1510 1510 1510 1511 1511 1512 1513 1514 1513 1513 1515 1516 1517 1518 1520 1521 1523 1524 1524 1525 1526 1527 1528 1529 1529 1530 1531 1532 1532 1533 1534 1534 1535 1535 1536 1536 1536 1536 1537
1501 1502 1505 1509 1519 1522 1516 1511 1511 1509 1509 1509 1510 1511 1512 1513 1513 1513 1513 1513 1515 1516 1517 1518 1520 1521 1522 1523 1524 1525 1526 1527 1528 1529 1529 1530 1531 1531 1532 1533 1534 1534 1535 1535 1536 1536 1536 1537 1537
1501 1504 1506 1514 1516 1514 1511 1510 1509 1509 1509 1509 1510 1511 1512 1513 1513 1513 1513 1514 1515 1516 1517 1518 1519 1521 1522 1523 1524 1524 1525 1526 1527 1528 1529 1530 1530 1531 1532 1533 1533 1534 1535 1535 1536 1536 1537 1537 1537
1501 1503 1511 1517 1514 1511 1510 1509 1509 1509 1509 1509 1510 1511 1511 1513 1513 1513 1513 1514 1514 1515 1516 1517 1519 1520 1521 1522 1523 1524 1525 1526 1526 1527 1528 1529 1530 1531 1532 1532 1533 1533 1534 1535 1536 1536 1536 1537 1537
1501 1504 1516 1517 1512 1509 1509 1508 1509 1508 1509 1509 1510 1511 1511 1512 1512 1512 1513 1513 1514 1515 1516 1517 1518 1519 1520 1521 1522 1523 1524 1525 1525 1526 1527 1528 1529 1530 1531 1531 1532 1533 1534 1534 1535 1536 1536 1537 1537
1502 1508 1513 1513 1512 1510 1508 1508 1508 1508 1508 1510 1510 1511 1511 1511 1512 1512 1512 1513 1514 1515 1515 1516 1517 1518 1519 1520 1521 1522 1523 1524 1524 1525 1526 1527 1528 1529 1530 1530 1531 1532 1533 1533 1534 1535 1536 1536 1537
1501 1507 1512 1514 1512 1510 1508 1507 1508 1508 1508 1509 1510 1510 1510 1511 1511 1511 1512 1512 1513 1514 1514 1515 1516 1517 1517 1518 1520 1521 1521 1522 1523 1524 1525 1526 1527 1528 1528 1529 1530 1531 1532 1533 1533 1534 1535 1536 1536
1501 1510 1512 1511 1510 1508 1507 1507 1507 1507 1508 1508 1509 1510 1510 1510 1509 1510 1510 1511 1512 1512 1513 1514 1514 1515 1516 1517 1518 1519 1520 1521 1522 1522 1523 1524 1525 1526 1527 1528 1529 1530 1531 1532 1532 1533 1534 1535 1536
1502 1510 1507 1507 1507 1507 1506 1507 1507 1507 1507 1507 1507 1508 1508 1509 1508 1508 1508 1509 1509 1510 1511 1512 1513 1514 1514 1515 1516 1517 1518 1519 1520 1521 1521 1522 1524 1525 1526 1527 1528 1529 1529 1530 1531 1532 1533 1533 1534
1502 1506 1505 1505 1505 1505 1506 1507 1507 1507 1508 1507 1507 1506 1506 1507 1507 1508 1507 1507 1508 1509 1509 1510 1511 1512 1513 1513 1514 1515 1516 1517 1518 1519 1520 1521 1522 1523 1524 1525 1526 1527 1528 1529 1530 1531 1532 1532 1533
1503 1504 1504 1504 1505 1505 1506 1506 1507 1506 1507 1506 1506 1505 1505 1505 1506 1506 1506 1506 1507 1507 1508 1508 1509 1510 1510 1511 1512 1513 1514 1514 1516 1517 1518 1519 1520 1521 1522 1523 1524 1525 1526 1527 1528 1529 1530 1531 1532
1503 1504 1504 1504 1504 1505 1505 1506 1506 1504 1505 1505 1504 1504 1503 1503 1503 1504 1505 1505 1505 1505 1506 1506 1507 1508 1508 1509 1510 1511 1512 1512 1513 1514 1516 1517 1518 1519 1520 1521 1522 1523 1524 1525 1526 1528 1528 1530 1531
1503 1503 1503 1503 1503 1504 1505 1505 1505 1502 1503 1503 1503 1502 1502 1502 1502 1502 1503 1503 1503 1504 1504 1504 1504 1505 1506 1507 1508 1508 1509 1510 1511 1512 1513 1515 1516 1517 1518 1519 1520 1521 1522 1524 1525 1526 1527 1528 1529
1502 1504 1504 1503 1503 1504 1504 1504 1503 1501 1502 1501 1501 1500 1500 1500 1500 1500 1500 1500 1501 1501 1502 1502 1502 1503 1503 1504 1505 1506 1507 1508 1509 1510 1511 1512 1513 1514 1516 1517 1518 1519 1520 1522 1523 1524 1525 1526 1527
1503 1506 1508 1505 1503 1503 1507 1506 1500 1500 1499 1498 1498 1498 1497 1497 1497 1497 1498 1498 1498 1499 1499 1499 1500 1500 1500 1501 1502 1503 1504 1505 1506 1507 1508 1509 1511 1512 1513 1515 1515 1517 1518 1519 1520 1522 1523 1524 1525
1508 1511 1509 1507 1504 1504 1506 1505 1499 1498 1498 1496 1496 1495 1494 1494 1494 1494 1495 1495 1495 1496 1496 1496 1497 1497 1498 1498 1499 1500 1501 1502 1504 1504 1505 1506 1508 1509 1510 1512 1513 1514 1516 1517 1518 1520 1521 1522 1523
1510 1511 1510 1509 1505 1505 1506 1503 1498 1497 1496 1495 1493 1492 1492 1491 1491 1491 1492 1492 1492 1493 1493 1493 1494 1494 1495 1495 1496 1497 1498 1499 1501 1502 1502 1503 1505 1506 1508 1509 1510 1511 1513 1515 1516 1517 1518 1520 1520
1507 1509 1510 1508 1504 1505 1504 1501 1496 1493 1493 1492 1490 1489 1488 1488 1488 1488 1489 1489 1489 1488 1488 1489 1490 1491 1492 1492 1492 1493 1495 1496 1497 1499 1500 1501 1502 1503 1505 1506 1507 1508 1510 1512 1513 1515 1516 1517 1518
1506 1508 1509 1506 1504 1504 1503 1499 1493 1490 1489 1488 1487 1486 1485 1484 1484 1484 1485 1484 1484 1484 1485 1486 1487 1487 1488 1489 1490 1491 1492 1493 1494 1496 1497 1498 1499 1500 1502 1503 1504 1505 1507 1509 1510 1511 1513 1514 1516
1506 1508 1508 1507 1506 1504 1504 1496 1491 1487 1486 1485 1485 1484 1483 1482 1481 1481 1480 1480 1480 1480 1481 1482 1483 1484 1485 1486 1486 1488 1489 1490 1491 1492 1493 1494 1496 1497 1499 1500 1501 1502 1504 1505 1507 1509 1510 1511 1513
1504 1503 1505 1506 1509 1511 1508 1507 1491 1488 1486 1484 1482 1481 1480 1479 1479 1478 1477 1477 1477 1478 1479 1479 1480 1481 1481 1482 1483 1483 1485 1486 1487 1488 1490 1491 1493 1494 1495 1497 1498 1499 1501 1503 1504 1506 1508 1509 1510
1503 1502 1505 1507 1510 1514 1511 1512 1495 1490 1487 1483 1480 1479 1478 1477 1476 1475 1475 1475 1475 1475 1476 1476 1477 1477 1478 1479 1479 1480 1482 1483 1484 1486 1487 1488 1489 1491 1492 1494 1495 1496 1498 1500 1501 1503 1505 1506 1508
1502 1505 1508 1512 1514 1517 1511 1512 1499 1492 1486 1481 1478 1477 1476 1475 1474 1473 1473 1472 1472 1472 1472 1473 1473 1473 1474 1475 1476 1477 1478 1480 1481 1482 1483 1485 1486 1487 1489 1490 1492 1493 1495 1497 1498 1500 1502 1503 1504
1502 1508 1516 1516 1521 1514 1509 1507 1497 1484 1482 1480 1478 1476 1475 1474 1472 1471 1470 1469 1469 1469 1469 1469 1469 1470 1471 1472 1473 1474 1475 1476 1477 1479 1480 1481 1483 1483 1485 1486 1489 1490 1492 1494 1495 1497 1498 1499 1501
1503 1505 1513 1515 1517 1512 1509 1506 1491 1482 1480 1479 1477 1476 1474 1473 1471 1470 1468 1467 1467 1466 1466 1466 1466 1466 1467 1468 1469 1470 1471 1473 1474 1475 1477 1478 1480 1481 1481 1483 1485 1487 1488 1490 1492 1493 1495 1496 1497
1503 1506 1508 1517 1522 1521 1510 1503 1489 1480 1479 1477 1476 1475 1473 1472 1471 1469 1468 1466 1465 1464 1464 1464 1464 1464 1464 1465 1465 1466 1468 1469 1470 1472 1474 1475 1476 1478 1479 1480 1482 1483 1485 1487 1488 1489 1491 1492 1493
1500 1504 1512 1515 1515 1512 1505 1502 1492 1483 1480 1478 1476 1474 1473 1472 1470 1469 1467 1465 1464 1463 1462 1462 1462 1461 1461 1462 1462 1463 1464 1466 1467 1469 1470 1472 1473 1474 1475 1476 1478 1480 1481 1483 1484 1485 1487 1488 1489
1503 1506 1507 1513 1513 1512 1510 1496 1483 1481 1479 1478 1476 1474 1473 1471 1470 1468 1467 1465 1463 1462 1460 1459 1459 1458 1458 1458 1459 1460 1461 1462 1464 1465 1467 1469 1470 1471 1472 1473 1475 1476 1478 1479 1481 1482 1483 1484 1485
1498 1501 1505 1508 1512 1514 1511 1496 1478 1477 1476 1476 1475 1473 1472 1471 1469 1468 1466 1464 1462 1460 1458 1457 1456 1456 1456 1456 1456 1456 1458 1459 1461 1462 1464 1466 1467 1468 1469 1470 1471 1472 1474 1476 1477 1478 1479 1480 1481